星链-31742 (STARLINK-31742 )

导读

STARLINK-31742是美国太空探索技术公司 SpaceX 星链互联网卫星星座的一员,于北京时间2024年4月13日8点发射入轨,星链计划旨在为全球提供高速低延迟宽带互联网服务,该卫星承担星座容量扩容与网络覆盖优化任务,目前已在既定轨道开展运行测试工作。

基本信息
目录编号:
59499
目录名称:
STARLINK-31742
国际标识:
2024-071R
轨道中心:
EARTH
卫星名称:
星链-31742
卫星全名:
星链-31742 (STARLINK-31742 )
卫星状态:
在轨 (已飞行874 天)
发射日期:
2024-04-13 UTC
国别 :
美国 (US)
星等 :
--
轨道信息
数据来源 国际轨道数据
星历时间: 2026-09-03T20:17:08+0800
1天前
查看轨道信息
半长轴: 6861.176km
偏心率: 0.000106
轨道倾角: 43.004°
近地点辐角 206.536°
升交点赤经 55.284°
平近点角 153.544°
近地点: 482.311km
远地点: 483.767km
周期: 94.267分钟
每日圈数: 15.275835
详细信息
固有亮度:
5
最大亮度:
1.5
卫星平台:
Starlink v2.0 mini
覆盖范围:
全球
运营商:
太空探索技术公司
运营商所在国:
美国
制造商(研发单位):
太空探索技术公司
制造商所在国:
美国
使用方式:
暂无
卫星简介
星链(Starlink)计划是由太空探索技术公司(SpaceX)提出的一个巨型低轨卫星互联网星座项目,计划在2019年至2024年间在太空搭建由约1.2万颗卫星组成的“星链”网络,其中1584颗将部署在地球上空550千米处的近地轨道,并从2020年开始工作。该卫星仍在工作。
2D轨道图
3D轨道图
轨道高度分析图
轨道倾角分析图
轨道综合分析图
查看轨道综合分析图
交会数据列表
事件ID 空间交会对象 最接近时刻(TCA) 交会距离 交会风险概率(CRP) 交会风险指数(CRI) 操作
CDM_260828-120005-949906-795822
2026-08-28T
12:00:11+0000
0.566 km
远距离
1.195373E-4 高风险 0.77
CDM_260902-235705-949906-790921
2026-09-02T
23:57:28+0000
0.788 km
远距离
3.778038E-5 中风险 0.67
CDM_260906-115704-344105-949921
2026-09-06T
11:57:52+0000
1.602 km
极远距离
5.049131E-6 低风险 0.49
CDM_260828-215305-393005-949921
2026-08-28T
21:53:39+0000
2.032 km
极远距离
2.071781E-6 低风险 0.41
CDM_260828-133405-949906-795822
2026-08-28T
13:34:20+0000
2.071 km
极远距离
2.057408E-6 低风险 0.41